Location: NJAA Observatory
(40.6819°N, 74.8979°W)
Time: 18:08:45
(UTC-04:00)

Iridium 4 - Visible Passes

Search period start: 06 July 2015 00:00
Search period end: 16 July 2015 00:00
Orbit: 773 x 777 km, 86.4° (Epoch: 06 July)

Date Brightness Start Highest point End Pass type
(mag) Time Alt. Az. Time Alt. Az. Time Alt. Az.
06 Jul 5.4 23:13:03 45° S 23:14:42 90° SSE 23:19:57 10° N visible
07 Jul 5.9 22:38:42 33° SE 22:40:31 48° E 22:45:31 10° NNE visible
08 Jul 7.6 00:19:06 15° WSW 00:21:33 19° WNW 00:25:09 10° NNW visible
08 Jul 6.7 22:04:20 20° ESE 22:06:26 26° E 22:10:43 10° NNE visible
08 Jul 6.8 23:44:44 24° SW 23:46:59 35° W 23:51:43 10° NNW visible
09 Jul 7.4 21:30:00 10° ESE 21:32:27 14° E 21:35:09 10° NE visible
09 Jul 5.7 23:10:21 34° SSW 23:12:35 66° W 23:17:47 10° N visible
10 Jul 5.5 22:35:58 32° SSE 22:38:21 67° E 22:43:31 10° N visible
11 Jul 8.0 00:16:52 10° WSW 00:19:40 14° WNW 00:22:11 10° NW visible
11 Jul 6.3 22:01:33 21° SE 22:04:12 35° E 22:08:56 10° NNE visible
11 Jul 7.3 23:41:57 16° WSW 23:45:00 26° WNW 23:49:14 10° NNW visible
12 Jul 7.0 21:27:07 12° ESE 21:30:10 19° E 21:33:51 10° NE visible
12 Jul 6.3 23:07:31 23° SSW 23:10:30 47° W 23:15:32 10° N visible
13 Jul 5.5 22:33:05 25° S 22:36:12 89° WNW 22:41:26 10° N visible
14 Jul 5.8 21:58:36 19° SSE 22:02:00 48° E 22:07:01 10° NNE visible
14 Jul 7.8 23:39:20 10° WSW 23:43:03 19° WNW 23:46:36 10° NNW visible
15 Jul 6.6 21:24:06 12° SE 21:27:55 26° E 21:32:13 10° NNE visible
15 Jul 6.9 23:04:30 14° SW 23:08:28 34° W 23:13:11 10° NNW visible
